Pereira, Colombia

7:11 AM -05 on May 27, 2018 (GMT -0500)
Matecana

Weather History for SKPE - October, 2012

Change the Weather History Date:

Wednesday, October 17, 2012

  Actual Average Record
Temperature  
Mean Temperature 68 °F -  
Max Temperature 75 °F 80 °F 85 °F (2017)
Min Temperature 62 °F 61 °F 62 °F (2005)
Cooling Degree Days 4    
Growing Degree Days 18 (Base 50)    
Moisture  
Dew Point 63 °F    
Average Humidity 79    
Maximum Humidity 100    
Minimum Humidity 57    
Precipitation  
Precipitation 0.00 in 0.36 in - ()
Sea Level Pressure  
Sea Level Pressure 30.12 in    
Wind  
Wind Speed 3 mph ()    
Max Wind Speed 6 mph    
Max Gust Speed -    
Visibility 5.9 miles    
Events Fog    
Averages and records for this station are not official NWS values.
T = Trace of Precipitation, MM = Missing Value Source: Averaged Metar Reports

Daily Weather History Graph

Daily Weather History Graph

Search for Another Location

Airport or City:

Astronomy

Oct. 17, 2012 Rise Set
Actual Time 5:48 AM -05 5:48 PM -05
Civil Twilight 5:27 AM -05 6:09 PM -05
Nautical Twilight 5:02 AM -05 6:33 PM -05
Astronomical Twilight 4:38 AM -05 6:57 PM -05
Moon 7:44 AM -05 (10/17) 7:59 PM -05 (10/17)
Length of Visible Light 12h 42m
Length of Day
12h 00m
Waxing Crescent, 7% of the Moon is Illuminated
Oct 17
Waxing Crescent
Oct 21
First Quarter
Oct 29
Full
Nov 6
Last Quarter
Nov 13
New

Hourly Weather History & Observations

Time (-05) Temp. Dew Point Humidity Pressure Visibility Wind Dir Wind Speed Gust Speed Precip Events Conditions
12:00 AM - - N/A% 30.16 in 3.7 mi East 5.8 mph - N/A Fog Fog
5:00 AM 62.6 °F 62.6 °F 100% 30.12 in - Variable 2.3 mph - N/A Fog Patches of Fog
6:00 AM 62.6 °F 62.6 °F 100% 30.12 in 1.6 mi Variable 2.3 mph - N/A Fog Patches of Fog
7:00 AM 62.6 °F 60.8 °F 94% 30.15 in 6.2 mi Variable 2.3 mph - N/A Fog Patches of Fog
8:00 AM 64.4 °F 62.6 °F 94% 30.16 in - Variable 2.3 mph - N/A Fog Patches of Fog
9:00 AM 66.2 °F 62.6 °F 88% 30.18 in 5.0 mi Variable 2.3 mph - N/A Fog Fog
10:00 AM 67 °F 62 °F 77%  in 7 mi Calm Calm - -   Haze
10:00 AM 68.0 °F 60.8 °F 78% 30.21 in 6.2 mi Variable 2.3 mph - N/A   Scattered Clouds
11:00 AM 69.8 °F 62.6 °F 78% 30.18 in 6.2 mi Variable 2.3 mph - N/A   Scattered Clouds
12:00 PM 71.6 °F 64.4 °F 78% 30.15 in 6.2 mi NNW 3.5 mph - N/A   Scattered Clouds
1:00 PM 74 °F 63 °F 60%  in 7 mi WNW 4.5 mph - -   Haze
1:00 PM 73.4 °F 62.6 °F 69% 30.12 in 6.2 mi WNW 3.5 mph - N/A   Scattered Clouds
2:00 PM 75.2 °F 64.4 °F 69% 30.08 in 6.2 mi NW 5.8 mph - N/A   Scattered Clouds
3:00 PM 75.2 °F 64.4 °F 69% 30.05 in 6.2 mi South 4.6 mph - N/A   Scattered Clouds
4:00 PM 74 °F 62 °F 57%  in 7 mi SW 4.5 mph - -   Haze
4:00 PM 75.2 °F 62.6 °F 65% 30.03 in 6.2 mi SW 3.5 mph - N/A   Mostly Cloudy
5:00 PM 73.4 °F 64.4 °F 73% 30.03 in 6.2 mi SSW 4.6 mph - N/A   Scattered Clouds
6:00 PM 71.6 °F 64.4 °F 78% 30.04 in 6.2 mi Variable 2.3 mph - N/A   Scattered Clouds
7:00 PM 71.6 °F 64.4 °F 78% 30.07 in 6.2 mi ESE 3.5 mph - N/A   Scattered Clouds
8:00 PM 69.8 °F 64.4 °F 83% 30.10 in 6.2 mi East 5.8 mph - N/A   Scattered Clouds
9:00 PM 69.8 °F 64.4 °F 83% 30.13 in 6.2 mi ENE 4.6 mph - N/A   Scattered Clouds
10:00 PM 68 °F 64 °F 81%  in 6 mi East 2.2 mph - -   Haze
10:00 PM 68.0 °F 64.4 °F 88% 30.14 in 6.2 mi East 5.8 mph - N/A   Scattered Clouds
11:00 PM 68.0 °F 64.4 °F 88% 30.15 in 6.2 mi East 5.8 mph - N/A   Scattered Clouds